Location: Alpha Ridge Park
(39.3209°N, 76.9128°W)
Time: 10:18:42
(UTC-04:00)

Vanguard 2 Rocket - Pass Details

Date: 29 May 2019
Orbit: 555 x 3326 km, 32.9° (Epoch: 25 June)

Event Time Altitude Azimuth Distance (km) Brightness Sun altitude
Rises 01:29:39 0° 185° (S) 6,627 - -28.8°
Reaches altitude 10° 01:36:21 10° 169° (SSE) 5,978 - -28.7°
Exits shadow 01:43:29 17° 146° (SSE) 5,621 10.5 -28.4°
Maximum altitude 01:47:12 18° 134° (SE) 5,597 10.6 -28.3°
Drops below altitude 10° 01:58:13 10° 100° (E) 6,166 11.1 -27.8°
Sets 02:05:07 0° 84° (E) 6,921 11.7 -27.5°
